When you browse on this site, cookies collect data to enhance your experience and personalize the content and advertising you see.
Visit our Privacy Policy to learn more. By continuing to use the site, you agree to this use of cookies and data.
  • In Deutschland
  • Länderverzeichnis
  • Für 7 Tage
  • Wassertemperatur
  • Satellitenkarten
  • Wetterkarte
  • Widgets
  • user-avatar
    Anmelden

    Stündliche Wetter Zofinin

    Heute, 20 Juli, Samstag

    Zeit Temperatur Niederschläge Wind Luftdruck Luftfeuchtigkeit
    00:00 +18°C° 0.3 mm 2 m/S 750 mmHg 78%
    01:00 +18°C° 0 mm 2 m/S 750 mmHg 79%
    02:00 +18°C° 0.5 mm 2 m/S 750 mmHg 82%
    03:00 +17°C° 0.5 mm 2 m/S 750 mmHg 86%
    04:00 +17°C° 0.5 mm 2 m/S 750 mmHg 90%
    05:00 +18°C° 0 mm 2 m/S 750 mmHg 87%
    06:00 +19°C° 0 mm 2 m/S 750 mmHg 83%
    07:00 +20°C° 0 mm 2 m/S 751 mmHg 80%
    08:00 +23°C° 0.3 mm 2 m/S 751 mmHg 75%
    09:00 +24°C° 0.3 mm 3 m/S 751 mmHg 70%
    10:00 +25°C° 0.3 mm 3 m/S 751 mmHg 65%
    11:00 +26°C° 0.8 mm 3 m/S 751 mmHg 61%
    12:00 +27°C° 0.8 mm 2 m/S 751 mmHg 58%
    13:00 +28°C° 0.8 mm 2 m/S 750 mmHg 54%
    14:00 +27°C° 1.1 mm 2 m/S 750 mmHg 57%
    15:00 +27°C° 1.1 mm 1 m/S 751 mmHg 59%
    16:00 +26°C° 1.1 mm 1 m/S 751 mmHg 62%
    17:00 +25°C° 0.1 mm 1 m/S 751 mmHg 66%
    18:00 +24°C° 0.1 mm 1 m/S 750 mmHg 69%
    19:00 +23°C° 0.1 mm 1 m/S 750 mmHg 73%
    20:00 +22°C° 0 mm 1 m/S 751 mmHg 75%
    21:00 +22°C° 0 mm 1 m/S 751 mmHg 77%
    22:00 +21°C° 0 mm 1 m/S 751 mmHg 79%
    23:00 +20°C° 0 mm 1 m/S 751 mmHg 79%

    Morgen, 21 Juli, Sonntag

    Zeit Temperatur Niederschläge Wind Luftdruck Luftfeuchtigkeit
    00:00 +20°C° 0 mm 1 m/S 751 mmHg 80%
    01:00 +20°C° 0 mm 1 m/S 751 mmHg 81%
    02:00 +19°C° 0 mm 1 m/S 751 mmHg 82%
    03:00 +19°C° 0 mm 1 m/S 751 mmHg 83%
    04:00 +19°C° 0 mm 1 m/S 751 mmHg 84%
    05:00 +20°C° 0 mm 1 m/S 751 mmHg 80%
    06:00 +21°C° 0 mm 2 m/S 750 mmHg 75%
    07:00 +23°C° 0 mm 2 m/S 750 mmHg 71%
    08:00 +25°C° 0 mm 2 m/S 750 mmHg 65%
    09:00 +27°C° 0 mm 3 m/S 751 mmHg 59%
    10:00 +28°C° 0 mm 3 m/S 751 mmHg 53%
    11:00 +29°C° 0 mm 3 m/S 750 mmHg 53%
    12:00 +30°C° 0 mm 3 m/S 750 mmHg 52%
    13:00 +30°C° 0 mm 3 m/S 750 mmHg 52%
    14:00 +29°C° 2.7 mm 3 m/S 750 mmHg 59%
    15:00 +28°C° 2.7 mm 2 m/S 750 mmHg 66%
    16:00 +26°C° 2.7 mm 2 m/S 750 mmHg 73%
    17:00 +25°C° 2.1 mm 2 m/S 750 mmHg 76%
    18:00 +24°C° 2.1 mm 3 m/S 750 mmHg 79%
    19:00 +22°C° 2.1 mm 3 m/S 750 mmHg 82%
    20:00 +21°C° 0.2 mm 3 m/S 750 mmHg 85%
    21:00 +21°C° 0.2 mm 4 m/S 751 mmHg 88%
    22:00 +20°C° 0.2 mm 4 m/S 751 mmHg 91%
    23:00 +19°C° 0 mm 4 m/S 751 mmHg 92%

    übermorgen, 22 Juli, Montag

    Zeit Temperatur Niederschläge Wind Luftdruck Luftfeuchtigkeit
    00:00 +18°C° 0 mm 4 m/S 751 mmHg 93%
    01:00 +18°C° 0 mm 4 m/S 752 mmHg 93%
    02:00 +17°C° 0 mm 4 m/S 752 mmHg 94%
    03:00 +17°C° 0 mm 4 m/S 752 mmHg 94%
    04:00 +16°C° 0 mm 3 m/S 752 mmHg 94%
    05:00 +17°C° 0 mm 4 m/S 753 mmHg 91%
    06:00 +17°C° 0 mm 5 m/S 753 mmHg 87%
    07:00 +17°C° 0 mm 5 m/S 753 mmHg 84%
    08:00 +19°C° 0.1 mm 5 m/S 753 mmHg 83%
    09:00 +19°C° 0.1 mm 5 m/S 754 mmHg 82%
    10:00 +19°C° 0.1 mm 5 m/S 754 mmHg 81%
    11:00 +20°C° 0.1 mm 6 m/S 754 mmHg 75%
    12:00 +22°C° 0.1 mm 6 m/S 754 mmHg 68%
    13:00 +23°C° 0.1 mm 7 m/S 754 mmHg 62%
    14:00 +23°C° 0 mm 7 m/S 754 mmHg 61%
    15:00 +23°C° 0 mm 7 m/S 754 mmHg 59%
    16:00 +23°C° 0 mm 6 m/S 754 mmHg 58%
    17:00 +22°C° 0 mm 5 m/S 754 mmHg 63%
    18:00 +21°C° 0 mm 4 m/S 754 mmHg 69%
    19:00 +20°C° 0 mm 3 m/S 754 mmHg 74%
    20:00 +18°C° 0 mm 3 m/S 754 mmHg 78%
    21:00 +17°C° 0 mm 2 m/S 754 mmHg 81%
    22:00 +16°C° 0 mm 2 m/S 755 mmHg 85%
    23:00 +15°C° 0 mm 2 m/S 754 mmHg 86%

    23 Juli, Dienstag

    Zeit Temperatur Niederschläge Wind Luftdruck Luftfeuchtigkeit
    00:00 +15°C° 0 mm 2 m/S 754 mmHg 88%
    01:00 +13°C° 0 mm 3 m/S 754 mmHg 89%
    02:00 +13°C° 0 mm 3 m/S 754 mmHg 90%
    03:00 +13°C° 0 mm 3 m/S 754 mmHg 91%
    04:00 +12°C° 0 mm 3 m/S 754 mmHg 93%
    05:00 +14°C° 0 mm 3 m/S 754 mmHg 88%
    06:00 +15°C° 0 mm 4 m/S 754 mmHg 84%
    07:00 +18°C° 0 mm 4 m/S 754 mmHg 80%
    08:00 +19°C° 0 mm 5 m/S 754 mmHg 75%
    09:00 +21°C° 0 mm 5 m/S 753 mmHg 70%
    10:00 +22°C° 0 mm 5 m/S 753 mmHg 65%
    11:00 +23°C° 0.1 mm 5 m/S 753 mmHg 63%
    12:00 +25°C° 0.1 mm 5 m/S 753 mmHg 61%
    13:00 +24°C° 0.1 mm 6 m/S 753 mmHg 59%
    14:00 +24°C° 0.1 mm 6 m/S 753 mmHg 60%
    15:00 +24°C° 0.1 mm 6 m/S 753 mmHg 61%
    16:00 +24°C° 0.1 mm 6 m/S 753 mmHg 62%
    17:00 +23°C° 0.1 mm 5 m/S 753 mmHg 68%
    18:00 +22°C° 0.1 mm 4 m/S 753 mmHg 74%
    19:00 +21°C° 0.1 mm 3 m/S 753 mmHg 80%
    20:00 +20°C° 0 mm 3 m/S 753 mmHg 83%
    21:00 +19°C° 0 mm 3 m/S 753 mmHg 86%
    22:00 +18°C° 0 mm 2 m/S 753 mmHg 90%
    23:00 +17°C° 0 mm 2 m/S 753 mmHg 91%

    24 Juli, Mittwoch

    Zeit Temperatur Niederschläge Wind Luftdruck Luftfeuchtigkeit
    00:00 +16°C° 0 mm 2 m/S 753 mmHg 92%
    01:00 +16°C° 0 mm 2 m/S 753 mmHg 92%
    02:00 +15°C° 0 mm 2 m/S 753 mmHg 93%
    03:00 +15°C° 0 mm 2 m/S 753 mmHg 93%
    04:00 +15°C° 0 mm 2 m/S 753 mmHg 94%
    05:00 +16°C° 0 mm 2 m/S 753 mmHg 88%
    06:00 +18°C° 0 mm 2 m/S 753 mmHg 83%
    07:00 +19°C° 0 mm 2 m/S 754 mmHg 77%
    08:00 +21°C° 0 mm 2 m/S 754 mmHg 71%
    09:00 +23°C° 0 mm 2 m/S 754 mmHg 64%
    10:00 +25°C° 0 mm 2 m/S 754 mmHg 57%
    11:00 +26°C° 0 mm 3 m/S 754 mmHg 55%
    12:00 +26°C° 0 mm 3 m/S 754 mmHg 53%
    13:00 +27°C° 0 mm 3 m/S 753 mmHg 50%
    14:00 +27°C° 0 mm 3 m/S 753 mmHg 52%
    15:00 +27°C° 0 mm 3 m/S 753 mmHg 54%
    16:00 +27°C° 0 mm 3 m/S 753 mmHg 55%
    17:00 +26°C° 0 mm 2 m/S 753 mmHg 62%
    18:00 +25°C° 0 mm 2 m/S 753 mmHg 69%
    19:00 +24°C° 0 mm 1 m/S 753 mmHg 76%
    20:00 +23°C° 0 mm 1 m/S 753 mmHg 78%
    21:00 +22°C° 0 mm 1 m/S 754 mmHg 81%
    22:00 +21°C° 0 mm 1 m/S 754 mmHg 83%
    23:00 +18°C° 0 mm 0 m/S 754 mmHg 85%

    25 Juli, Donnerstag

    Zeit Temperatur Niederschläge Wind Luftdruck Luftfeuchtigkeit
    00:00 +18°C° 0 mm 0 m/S 754 mmHg 86%
    01:00 +18°C° 0 mm 0 m/S 754 mmHg 87%
    02:00 +17°C° 0 mm 0 m/S 754 mmHg 88%
    03:00 +17°C° 0 mm 0 m/S 754 mmHg 88%
    04:00 +19°C° 0 mm 1 m/S 755 mmHg 88%
    05:00 +20°C° 0 mm 1 m/S 755 mmHg 83%
    06:00 +22°C° 0 mm 1 m/S 755 mmHg 77%
    07:00 +24°C° 0 mm 1 m/S 755 mmHg 72%
    08:00 +25°C° 0 mm 1 m/S 755 mmHg 67%
    09:00 +26°C° 0 mm 1 m/S 755 mmHg 62%
    10:00 +27°C° 0 mm 1 m/S 756 mmHg 58%
    11:00 +28°C° 0 mm 1 m/S 755 mmHg 54%
    12:00 +29°C° 0 mm 1 m/S 755 mmHg 51%
    13:00 +30°C° 0 mm 1 m/S 755 mmHg 48%
    14:00 +30°C° 0 mm 1 m/S 755 mmHg 48%
    15:00 +30°C° 0 mm 2 m/S 755 mmHg 48%
    16:00 +30°C° 0 mm 2 m/S 755 mmHg 48%
    17:00 +28°C° 0 mm 2 m/S 755 mmHg 55%
    18:00 +27°C° 0 mm 2 m/S 755 mmHg 61%
    19:00 +25°C° 0 mm 1 m/S 755 mmHg 68%
    20:00 +24°C° 0 mm 1 m/S 755 mmHg 71%
    21:00 +23°C° 0 mm 1 m/S 755 mmHg 74%
    22:00 +22°C° 0 mm 1 m/S 755 mmHg 77%
    23:00 +22°C° 0 mm 1 m/S 755 mmHg 79%
    Mehr zeigen